Date,TemperatureHighF,TemperatureAvgF,TemperatureLowF,DewpointHighF,DewpointAvgF,DewpointLowF,HumidityHigh,HumidityAvg,HumidityLow,PressureMaxIn,PressureMinIn,WindSpeedMaxMPH,WindSpeedAvgMPH,GustSpeedMaxMPH,PrecipitationSumIn
2013-4-1,82,69,60,69,62,57,90,79,54,30.00,29.88,22,8,0,0.20
2013-4-2,76,67,60,62,60,56,92,80,58,30.12,29.96,14,8,0,0.01
2013-4-3,69,66,61,67,63,59,96,92,86,30.09,30.01,18,8,0,0.35
2013-4-4,77,70,66,71,66,64,97,87,74,30.05,29.86,21,11,0,0.09
2013-4-5,68,61,57,64,58,54,95,92,85,30.01,29.79,26,12,0,0.04
2013-4-6,67,63,57,61,57,53,92,82,74,30.16,30.01,24,18,0,0.00
2013-4-7,70,67,62,66,63,61,95,89,82,30.20,30.09,12,7,0,0.00
2013-4-8,74,67,61,69,65,60,96,92,82,30.17,30.08,13,6,0,0.01
2013-4-9,72,69,66,70,67,65,97,93,88,30.21,30.09,12,6,0,0.01
2013-4-10,73,70,66,70,68,63,95,91,87,30.15,30.01,15,9,0,0.00
2013-4-11,73,70,69,70,69,68,98,96,91,30.01,29.82,22,10,0,0.00
2013-4-12,86,77,67,75,70,66,98,82,60,29.88,29.76,22,11,0,0.00
2013-4-13,73,69,66,68,61,52,91,76,53,30.02,29.87,14,8,0,0.00
2013-4-14,73,68,64,70,65,61,98,92,86,30.02,29.88,18,6,0,0.95
2013-4-15,80,69,64,70,66,63,98,91,70,30.12,29.81,18,7,0,0.00
2013-4-16,78,70,64,72,67,64,99,93,79,30.19,30.09,16,9,0,0.00
2013-4-17,76,71,68,71,69,67,98,92,83,30.18,30.09,12,8,0,0.01
2013-4-18,81,72,68,75,70,67,98,93,78,30.09,29.98,13,6,0,0.00
2013-4-19,78,74,72,74,72,70,98,93,84,30.01,29.88,20,8,0,0.05
2013-4-20,73,59,53,71,56,51,95,90,79,30.18,29.96,24,12,0,0.71
2013-4-21,69,66,63,66,62,58,94,87,80,30.18,30.07,31,23,0,0.02
2013-4-22,68,65,63,67,64,60,98,94,85,30.12,30.02,33,25,0,0.14
2013-4-23,71,66,63,62,60,58,90,81,70,30.17,30.05,28,17,0,0.00
2013-4-24,78,68,60,70,64,58,97,88,75,30.16,30.09,12,6,0,0.01
2013-4-25,86,71,63,70,67,62,96,87,57,30.21,30.10,11,5,0,0.00
2013-4-26,76,71,66,69,66,62,93,85,79,30.28,30.16,22,12,0,0.00
2013-4-27,81,72,69,71,67,66,92,85,70,30.27,30.16,16,10,0,0.00
2013-4-28,73,72,70,69,68,67,92,89,84,30.17,30.01,18,11,0,0.00
2013-4-29,76,71,68,71,68,65,94,89,79,30.03,29.92,20,7,0,0.37
2013-4-30,75,70,66,72,68,65,98,92,87,30.04,29.93,20,8,0,0.02